CW5752 Weather Reports


time (UTC)temp
C
wind
direction
speed
KPH
gust
KPH
rain 1hr
cm
rain 24hr
cm
rain mn
cm
humidity
%
barometer
mb
20260903123022 23 0.0 0.0 0.00 0.00 0.00 92 1016.1
20260903122042 22 0.0 0.0 0.00 0.00 0.00 93 1016.0
20260903121022 22 0.0 0.0 0.00 0.00 0.00 93 1015.9
20260903120016 22 0.0 0.0 0.00 0.00 0.00 93 1015.8
20260903115022 22 0.0 0.0 0.00 0.00 0.00 92 1015.8
20260903114022 22 0.0 0.0 0.00 0.00 0.00 93 1015.8
20260903113024 22 0.0 0.0 0.00 0.00 0.00 93 1015.8
20260903112022 22 0.0 0.0 0.00 0.00 0.00 92 1015.8
20260903111023 22 0.0 0.0 0.00 0.00 0.00 92 1015.7
20260903110017 22 0.0 0.0 0.00 0.00 0.00 92 1015.6
20260903105017 22 0.0 0.0 0.00 0.00 0.00 92 1015.6
20260903104027 22 0.0 0.0 0.00 0.00 0.00 92 1015.6
20260903103022 22 0.0 0.0 0.00 0.00 0.00 91 1015.5
20260903102022 23 0.0 0.0 0.00 0.00 0.00 91 1015.5
20260903101022 23 0.0 0.0 0.00 0.00 0.00 92 1015.5
20260903100022 23 0.0 0.0 0.00 0.00 0.00 92 1015.4
20260903095017 23 0.0 0.0 0.00 0.00 0.00 92 1015.3
20260903094047 23 0.0 0.0 0.00 0.00 0.00 91 1015.4
20260903093027 23 0.0 0.0 0.00 0.00 0.00 91 1015.4
20260903092043 22 0.0 0.0 0.00 0.00 0.00 91 1015.3
20260903091042 23 0.0 0.0 0.00 0.00 0.00 91 1015.4
20260903090022 23 0.0 0.0 0.00 0.00 0.00 91 1015.2
20260903085017 23 0.0 0.0 0.00 0.00 0.00 91 1015.2
20260903084037 23 0.0 0.0 0.00 0.00 0.00 91 1015.2
20260903083023 23 0.0 0.0 0.00 0.00 0.00 90 1015.2
20260903082027 23 0.0 0.0 0.00 0.00 0.00 91 1015.2
20260903081022 22 0.0 0.0 0.00 0.00 0.00 90 1015.2
20260903080022 23 0.0 0.0 0.00 0.00 0.00 89 1015.1
20260903075023 23 0.0 0.0 0.00 0.00 0.00 88 1015.0
20260903074016 23 0.0 0.0 0.00 0.00 0.00 89 1015.0
20260903073022 23 0.0 0.0 0.00 0.00 0.00 89 1015.0
20260903072022 23 0.0 0.0 0.00 0.00 0.00 89 1015.1
20260903071042 23 0.0 0.0 0.00 0.00 0.00 89 1015.0
20260903070027 23 0.0 0.0 0.00 0.00 0.00 87 1015.0
20260903065022 24 0.0 0.0 0.00 0.00 0.00 87 1015.1
20260903064022 24 0.0 0.0 0.00 0.00 0.00 87 1015.0
20260903063056 25 0.0 0.0 0.00 0.00 0.00 86 1015.1
20260903062022 25 0.0 0.0 0.00 0.00 0.00 85 1015.1
20260903061022 25 0.0 0.0 0.00 0.00 0.00 84 1015.1
20260903060022 26 0.0 0.0 0.00 0.00 0.00 80 1015.2
20260903055021 26 0.0 0.0 0.00 0.00 0.00 80 1015.2
20260903054022 26 0.0 0.0 0.00 0.00 0.00 81 1015.2
20260903053057 26 0.0 0.0 0.00 0.00 0.00 81 1015.2
20260903052023 26 0.0 0.0 0.00 0.00 0.00 80 1015.2
20260903051042 26 0.0 0.0 0.00 0.00 0.00 79 1015.2
20260903050022 26 0.0 0.0 0.00 0.00 0.00 81 1015.1
20260903045015 25 0.0 0.0 0.00 0.00 0.00 83 1015.1
20260903044026 25 0.0 0.0 0.00 0.00 0.00 83 1015.0
20260903043020 25 0.0 0.0 0.00 0.00 0.00 83 1015.0
20260903042021 25 0.0 0.0 0.00 0.00 0.00 84 1015.0
20260903041041 25 0.0 0.0 0.00 0.00 0.00 83 1014.9
20260903040020 25 0.0 0.0 0.00 0.00 0.00 83 1015.0
20260903035015 25 0.0 0.0 0.00 0.00 0.00 83 1014.9
20260903034021 25 0.0 0.0 0.00 0.00 0.00 82 1015.0
20260903033041 26 0.0 0.0 0.00 0.00 0.00 82 1015.0
20260903032020 26 0.0 0.0 0.00 0.00 0.00 79 1015.0
20260903031020 26 0.0 0.0 0.00 0.00 0.00 78 1015.0
20260903030025 26 0.0 0.0 0.00 0.00 0.00 79 1015.0
20260903025101 26 0.0 0.0 0.00 0.00 0.00 79 1014.8
20260903024015 26 0.0 0.0 0.00 0.00 0.00 79 1014.8
20260903023020 26 0.0 0.0 0.00 0.00 0.00 78 1014.7
20260903022022 27 0.0 0.0 0.00 0.00 0.00 77 1014.7
20260903021020 27 0.0 0.0 0.00 0.00 0.00 78 1014.6
20260903020020 27 0.0 0.0 0.00 0.00 0.00 74 1014.6
20260903015020 27 0.0 0.0 0.00 0.00 0.00 75 1014.4
20260903014015 28 0.0 0.0 0.00 0.00 0.00 73 1014.3
20260903013015 28 0.0 0.0 0.00 0.00 0.00 72 1014.2
20260903012020 27 0.0 0.0 0.00 0.00 0.00 74 1014.2
20260903011020 28 0.0 0.0 0.00 0.00 0.00 73 1014.2
20260903010020 28 0.0 0.0 0.00 0.00 0.00 72 1014.1
20260903005018 28 0.0 0.0 0.00 0.00 0.00 72 1014.1
20260903004020 28 0.0 0.0 0.00 0.00 0.00 72 1014.1
20260903003015 30 0.0 0.0 0.00 0.00 0.00 68 1014.0
20260903002020 30 0.0 0.0 0.00 0.00 0.00 65 1014.1
20260903001020 31 0.0 0.0 0.00 0.00 0.00 63 1014.1
20260903000045 32 0.0 0.0 0.00 0.00 0.00 60 1014.2
20260902235020 32 123 0.0 3.2 0.00 0.00 0.00 56 1014.2
20260902234021 33 123 0.0 3.2 0.00 0.00 0.00 55 1014.2
20260902233016 33 123 0.0 3.2 0.00 0.00 0.00 54 1014.1
20260902232015 33 123 0.0 3.2 0.00 0.00 0.00 51 1014.3
20260902231020 34 123 0.0 4.8 0.00 0.00 0.00 50 1014.3
20260902230020 34 121 0.0 3.2 0.00 0.00 0.00 50 1014.1
20260902225101 35 128 0.0 4.8 0.00 0.00 0.00 49 1014.2
20260902224020 35 140 0.0 4.8 0.00 0.00 0.00 48 1014.2
20260902223020 35 162 0.0 11.3 0.00 0.00 0.00 49 1014.2
20260902222015 35 157 1.6 11.3 0.00 0.00 0.00 44 1014.2
20260902221020 36 169 0.0 6.4 0.00 0.00 0.00 46 1014.2
20260902220020 35 157 0.0 4.8 0.00 0.00 0.00 44 1014.2
20260902215020 36 161 1.6 8.0 0.00 0.00 0.00 45 1014.3
20260902214020 35 191 0.0 3.2 0.00 0.00 0.00 46 1014.3
20260902213017 36 176 1.6 6.4 0.00 0.00 0.00 45 1014.5
20260902212023 36 177 1.6 12.9 0.00 0.00 0.00 45 1014.5
20260902211022 36 163 0.0 8.0 0.00 0.00 0.00 42 1014.5
20260902210022 36 179 1.6 9.7 0.00 0.00 0.00 43 1014.6
20260902205023 36 180 1.6 9.7 0.00 0.00 0.00 46 1014.7
20260902204022 36 155 0.0 8.0 0.00 0.00 0.00 46 1014.8
20260902203042 35 187 4.8 11.3 0.00 0.00 0.00 45 1014.7
20260902202017 36 191 3.2 11.3 0.00 0.00 0.00 44 1014.9
20260902201022 36 186 1.6 9.7 0.00 0.00 0.00 48 1015.0
20260902200022 36 162 0.0 4.8 0.00 0.00 0.00 47 1015.1
20260902195022 36 201 1.6 6.4 0.00 0.00 0.00 44 1015.2
20260902194023 36 205 1.6 14.5 0.00 0.00 0.00 45 1015.3
20260902193047 36 183 1.6 8.0 0.00 0.00 0.00 47 1015.5
20260902192017 36 230 0.0 4.8 0.00 0.00 0.00 48 1015.7
20260902191017 36 242 3.2 9.7 0.00 0.00 0.00 46 1015.8
20260902190022 36 184 1.6 12.9 0.00 0.00 0.00 48 1015.9
20260902185023 35 202 1.6 9.7 0.00 0.00 0.00 47 1015.9
20260902184029 36 200 3.2 9.7 0.00 0.00 0.00 45 1016.0
20260902183022 36 211 3.2 8.0 0.00 0.00 0.00 45 1016.0
20260902182022 36 203 1.6 12.9 0.00 0.00 0.00 47 1016.1
20260902181017 36 249 3.2 9.7 0.00 0.00 0.00 47 1016.2
20260902180020 35 187 1.6 11.3 0.00 0.00 0.00 45 1016.3
20260902175022 35 226 3.2 8.0 0.00 0.00 0.00 48 1016.5
20260902174023 35 208 4.8 17.7 0.00 0.00 0.00 46 1016.6
20260902173027 35 230 1.6 9.7 0.00 0.00 0.00 46 1016.7
20260902172024 35 228 1.6 9.7 0.00 0.00 0.00 46 1016.7
20260902171023 35 208 1.6 9.7 0.00 0.00 0.00 49 1016.9
20260902170018 35 229 3.2 9.7 0.00 0.00 0.00 50 1016.9
20260902165047 35 217 4.8 16.1 0.00 0.00 0.00 48 1017.0
20260902164022 35 201 3.2 9.7 0.00 0.00 0.00 50 1017.2
20260902163022 34 195 3.2 9.7 0.00 0.00 0.00 52 1017.1
20260902162022 33 199 1.6 9.7 0.00 0.00 0.00 53 1017.3
20260902161023 33 191 3.2 12.9 0.00 0.00 0.00 55 1017.4
20260902160017 33 218 1.6 11.3 0.00 0.00 0.00 55 1017.5
20260902155017 33 187 1.6 11.3 0.00 0.00 0.00 56 1017.5
20260902154022 32 199 3.2 9.7 0.00 0.00 0.00 57 1017.4
20260902153022 32 199 1.6 9.7 0.00 0.00 0.00 60 1017.5
20260902152022 32 189 3.2 8.0 0.00 0.00 0.00 60 1017.6
20260902151022 31 200 4.8 9.7 0.00 0.00 0.00 61 1017.7
20260902150022 31 203 3.2 8.0 0.00 0.00 0.00 64 1017.6
20260902145017 31 205 1.6 6.4 0.00 0.00 0.00 65 1017.7
20260902144023 30 180 1.6 6.4 0.00 0.00 0.00 66 1017.6
20260902143042 30 183 3.2 8.0 0.00 0.00 0.00 68 1017.6
20260902142027 29 198 1.6 4.8 0.00 0.00 0.00 70 1017.7
20260902141023 28 210 1.6 6.4 0.00 0.00 0.00 72 1017.8
20260902140022 28 234 0.0 4.8 0.00 0.00 0.00 75 1017.8
20260902135017 28 215 0.0 4.8 0.00 0.00 0.00 76 1017.9
20260902134017 27 190 0.0 4.8 0.00 0.00 0.00 78 1017.8
20260902133022 27 190 0.0 4.8 0.00 0.00 0.00 79 1017.8
20260902132022 26 189 0.0 3.2 0.00 0.00 0.00 80 1017.9
20260902131022 26 189 0.0 6.4 0.00 0.00 0.00 83 1017.7
20260902130027 25 0.0 0.0 0.00 0.00 0.00 86 1017.7
20260902125022 24 0.0 0.0 0.00 0.00 0.00 88 1017.6
20260902124017 23 0.0 0.0 0.00 0.00 0.00 90 1017.6